Hourly Data Report for October 08, 2012

All times are specified in Local Standard Time (LST). Add 1 hour to adjust for Daylight Saving Time where and when it is observed.

KITCHENER/WATERLOO
ONTARIO

43°27'39.000" N
80°22'43.000" W
321.60 m
6144239
71368
YKF

Download Data

Hourly Data (October 2012)
Hourly Data Report for October 8, 2012
Temp Definition
°C
Dew Point Temp Definition
°C
Rel Hum Definition
%
Wind Dir Definition
10's deg

Wind Spd Definition
km/h
Visibility Definition
km
Stn Press Definition
kPa
Hmdx Definition


Wind Chill Definition


Weather Definition


TIME
00:00 Legend Double Dagger 0.8 0.7 99   0 16.1 98.10     LegendNANA
01:00 Legend Double Dagger 0.2 0.1 99 35 5 16.1 98.14     LegendNANA
02:00 Legend Double Dagger 1.0 0.9 99 13 5 16.1 98.17     LegendNANA
03:00 Legend Double Dagger -0.1 -0.2 99 8 5 16.1 98.16   -2 LegendNANA
04:00 Legend Double Dagger -0.6 -0.9 98   0 16.1 98.20     LegendNANA
05:00 Legend Double Dagger -0.4 -0.5 99 22 4 16.1 98.23   -2 LegendNANA
06:00 Legend Double Dagger 0.7 0.1 96 17 5 16.1 98.26     LegendNANA
07:00 Legend Double Dagger 1.6 1.0 96 20 4 16.1 98.33     LegendNANA
08:00 Legend Double Dagger 2.7 2.1 96 18 4 16.1 98.37     LegendNANA
09:00 Legend Double Dagger 6.8 2.5 74 24 5 16.1 98.40     LegendNANA
10:00 Legend Double Dagger 8.3 -0.2 55 25 15 16.1 98.38     LegendNANA
11:00 Legend Double Dagger 8.7 -1.4 49 21 18 16.1 98.36     LegendNANA
12:00 Legend Double Dagger 9.6 -0.9 48 22 24 16.1 98.42     LegendNANA
13:00 Legend Double Dagger 10.5 -0.9 45 24 21 16.1 98.33     LegendNANA
14:00 Legend Double Dagger 11.0 -0.9 44 26 18 16.1 98.30     LegendNANA
15:00 Legend Double Dagger 10.9 -2.7 39 22 18 16.1 98.27     LegendNANA
16:00 Legend Double Dagger 10.6 -4.2 35 22 18 16.1 98.25     LegendNANA
17:00 Legend Double Dagger 9.9 -4.5 36 19 13 16.1 98.26     LegendNANA
18:00 Legend Double Dagger 8.0 -1.9 50 18 18 16.1 98.27     LegendNANA
19:00 Legend Double Dagger 6.2 -0.8 61 18 11 16.1 98.27     LegendNANA
20:00 Legend Double Dagger 3.7 -0.6 74 17 8 16.1 98.30     LegendNANA
21:00 Legend Double Dagger 3.6 -0.2 76 LegendMM 4 16.1 98.34     LegendNANA
22:00 Legend Double Dagger 1.6 -0.6 85 12 4 16.1 98.34     LegendNANA
23:00 Legend Double Dagger 2.1 -0.6 82 12 4 16.1 98.34     LegendNANA

Notes on Data Quality.

Legend

  • E = Estimated
  • M = Missing
  • NA = Not Available
  • ‡ = Partner data that is not subject to review by the National Climate Archives
Date modified: